NOAA 15 1 25338U 98030A 22146.53014502 .00000224 00000-0 11200-3 0 9991 2 25338 98.6453 176.3509 0010395 8.6977 351.4382 14.26129921249899 NAVSTAR 50 (USA 156) 1 26690U 01004A 22143.96059933 -.00000026 00000-0 00000-0 0 9993 2 26690 53.9427 87.5531 0003420 309.8676 209.1173 1.91595097155080 METEOSAT 8 (MSG 1) 1 27509U 02040B 22145.89077012 .00000130 00000-0 00000-0 0 9991 2 27509 7.9986 50.7835 0002454 329.1505 225.7299 1.00278137 72387 NAVSTAR 51 (USA 166) 1 27663U 03005A 22146.33563404 -.00000073 00000-0 00000-0 0 9996 2 27663 55.5274 273.9392 0125872 41.0298 323.6084 2.00565878141573 NAVSTAR 54 (USA 177) 1 28190U 04009A 22146.11021509 -.00000081 00000-0 00000-0 0 9997 2 28190 56.0178 334.9226 0090402 119.3530 238.7374 2.00560854133196 NAVSTAR 55 (USA 178) 1 28361U 04023A 22145.12215273 .00000086 00000-0 00000+0 0 9999 2 28361 54.1675 146.8307 0144585 258.8348 279.3289 2.00561266131298 NAVSTAR 56 (USA 180) 1 28474U 04045A 22145.60596208 -.00000111 00000-0 00000-0 0 9992 2 28474 55.3434 24.3595 0206637 278.8081 344.6639 2.00564581128677 NOAA 18 1 28654U 05018A 22146.53413395 .00000169 00000-0 11488-3 0 9998 2 28654 98.9495 216.9868 0014780 37.8208 322.3999 14.12733565876970 NAVSTAR 57 (USA 183) 1 28874U 05038A 22146.07132830 -.00000080 00000-0 00000-0 0 9993 2 28874 56.0849 332.3579 0137176 274.4306 76.3093 2.00577793122087 METEOSAT 9 (MSG 2) 1 28912U 05049B 22145.93035473 .00000125 00000-0 00000-0 0 9996 2 28912 5.9721 66.4487 0001322 351.8620 205.8955 1.00264896 60169 GOES 13 1 29155U 06018A 22146.61003274 .00000037 00000-0 00000+0 0 9994 2 29155 0.5477 96.9031 0002232 90.3566 338.0538 1.00268415 58643 METOP-A 1 29499U 06044A 22146.61270538 .00001846 00000-0 25154-3 0 9993 2 29499 98.4519 190.5230 0199370 76.6536 39.9100 14.67183423810328 NAVSTAR 59 (USA 192) 1 29601U 06052A 22145.63871433 -.00000072 00000-0 00000-0 0 9990 2 29601 55.5339 272.9035 0084141 73.3663 287.5362 2.00578679113657 NAVSTAR 60 (USA 196) 1 32260U 07047A 22145.95655804 .00000076 00000-0 00000-0 0 9990 2 32260 53.3089 141.4757 0138605 62.2605 299.1512 2.00549416107060 NAVSTAR 61 (USA 199) 1 32384U 07062A 22146.02606063 -.00000079 00000-0 00000-0 0 9990 2 32384 56.2031 333.1177 0020055 134.6550 47.1988 2.00560778105761 NOAA 19 1 33591U 09005A 22146.53285973 .00000199 00000-0 13289-3 0 9997 2 33591 99.1493 180.2075 0012936 247.7508 112.2291 14.12568626685092 GOES 14 1 35491U 09033A 22146.50397056 -.00000093 00000-0 00000+0 0 9999 2 35491 0.2704 95.1214 0011716 119.0573 106.7468 1.00271085 47288 GOES 15 1 36411U 10008A 22146.52314748 .00000053 00000-0 00000+0 0 9990 2 36411 0.2422 103.6522 0001711 339.4537 221.4476 1.00262051 44797 ELEKTRO-L 1 37344U 11001A 22145.85956604 -.00000319 00000-0 00000-0 0 9995 2 37344 6.2913 67.8205 0008805 359.9412 223.8223 1.00383554 41619 COSMOS 2471 (GLONASS) 1 37372U 11009A 22146.43417398 -.00000067 00000-0 00000-0 0 9991 2 37372 65.9484 4.1219 0015635 231.9829 316.5482 2.13061145 87491 NAVSTAR 66 (USA 232) 1 37753U 11036A 22146.31888723 -.00000110 00000-0 00000-0 0 9994 2 37753 56.5961 29.5649 0117323 51.4938 131.0155 2.00565301 79533 GALILEO-PFM 1 37846U 11060A 22145.37477095 -.00000106 00000-0 00000-0 0 9990 2 37846 56.9879 21.9625 0004086 30.8176 329.2481 1.70475105 65822 GALILEO-FM2 1 37847U 11060B 22145.61074868 -.00000106 00000-0 00000-0 0 9999 2 37847 56.9889 21.9558 0004070 0.4169 191.1016 1.70475415 65832 LUCH 5A 1 37951U 11074B 22146.58191368 -.00000047 00000-0 00000-0 0 9996 2 37951 4.9648 98.1126 0005806 335.8104 186.6623 1.00268689 38326 METEOSAT 10 (MSG 3) 1 38552U 12035B 22146.19176229 .00000058 00000-0 00000-0 0 9999 2 38552 1.4924 39.8244 0000332 7.7797 274.6914 1.00264025 35988 METOP-B 1 38771U 12049A 22146.60715949 .00000115 00000-0 72677-4 0 9998 2 38771 98.6968 206.6816 0001954 105.9115 17.7563 14.21484451502622 NAVSTAR 67 (USA 239) 1 38833U 12053A 22146.05038733 .00000035 00000-0 00000-0 0 9998 2 38833 53.5305 204.2677 0123085 46.0065 315.0767 2.00561551 69690 GALILEO-FM3 1 38857U 12055A 22144.82787922 .00000073 00000-0 00000-0 0 9992 2 38857 55.1317 142.3477 0005533 269.6759 90.2709 1.70473687 59704 GALILEO-FM4 1 38858U 12055B 22144.21145745 .00000073 00000-0 00000-0 0 9997 2 38858 55.1319 142.3660 0003103 270.8463 89.1280 1.70473954 59694 NAVSTAR 68 (USA 242) 1 39166U 13023A 22146.40769240 -.00000081 00000-0 00000-0 0 9991 2 39166 55.7129 328.7257 0104025 38.0755 322.6631 2.00566069 66144 INSAT 3D 1 39216U 13038B 22146.14076955 -.00000159 00000-0 00000-0 0 9994 2 39216 0.0585 122.6751 0000957 337.4510 276.3859 1.00271370 32229 NAVSTAR 69 (USA 248) 1 39533U 14008A 22145.40845707 .00000015 00000-0 00000-0 0 9991 2 39533 53.6250 209.7979 0059443 207.9421 151.8045 2.00552326 59923 LUCH 5V 1 39727U 14023A 22146.49572578 -.00000270 00000-0 00000-0 0 9990 2 39727 1.4487 75.0948 0003620 24.6932 57.4648 1.00272077 29498 NAVSTAR 70 (USA 251) 1 39741U 14026A 22146.18768491 -.00000110 00000-0 00000-0 0 9999 2 39741 56.5583 29.0957 0027297 307.7624 52.0294 2.00557664 58792 NAVSTAR 71 (USA 256) 1 40105U 14045A 22146.27280690 .00000085 00000-0 00000-0 0 9996 2 40105 54.6876 147.6891 0018679 109.4706 250.7546 2.00576516 56330 GALILEO 5 (261) 1 40128U 14050A 22145.57145527 -.00000108 00000-0 00000-0 0 9995 2 40128 50.2988 333.1926 1628904 123.1987 253.5114 1.85518868 50799 GALILEO 6 (262) 1 40129U 14050B 22143.67653819 -.00000095 00000-0 00000-0 0 9998 2 40129 50.3254 332.3278 1626060 123.9369 252.6236 1.85519391 52925 NAVSTAR 72 (USA 258) 1 40294U 14068A 22146.15061420 -.00000041 00000-0 00000-0 0 9998 2 40294 55.7997 88.8157 0040107 53.1332 307.2003 2.00569909 55464 COSMOS 2501 (GLONASS) 1 40315U 14075A 22144.63400455 -.00000041 00000-0 00000+0 0 9995 2 40315 63.6947 242.0104 0018484 208.4124 205.0487 2.13101454 58223 NAVSTAR 73 (USA 260) 1 40534U 15013A 22146.28648732 -.00000069 00000-0 00000-0 0 9997 2 40534 53.7172 265.6138 0068566 20.6466 339.6158 2.00553816 52089 GALILEO 7 (263) 1 40544U 15017A 22143.98236526 -.00000106 00000-0 00000-0 0 9992 2 40544 56.7828 22.0370 0001529 289.8592 70.1636 1.70475693 43887 GALILEO 8 (264) 1 40545U 15017B 22145.40825498 -.00000107 00000-0 00000-0 0 9995 2 40545 56.7891 22.0104 0000449 228.5053 131.5323 1.70475594 6957 NAVSTAR 74 (USA 262) 1 40730U 15033A 22146.45093257 -.00000082 00000-0 00000-0 0 9997 2 40730 55.2120 327.5637 0074207 7.9395 352.1820 2.00553013 50259 GALILEO 9 (205) 1 40889U 15045A 22146.34843756 -.00000053 00000-0 00000-0 0 9998 2 40889 55.6382 262.5738 0004034 23.6286 336.3721 1.70473942 41738 GALILEO 10 (206) 1 40890U 15045B 22145.39604465 -.00000055 00000-0 00000-0 0 9998 2 40890 55.6376 262.5960 0002206 13.9020 346.0865 1.70473955 41749 NAVSTAR 75 (USA 265) 1 41019U 15062A 22145.99777815 -.00000040 00000-0 00000-0 0 9991 2 41019 55.7884 88.6641 0077547 218.4899 140.9245 2.00562801 48087 GALILEO 12 (269) 1 41174U 15079A 22146.15716771 .00000070 00000-0 00000-0 0 9996 2 41174 55.1486 142.0144 0005580 303.0288 56.9252 1.70474512 39491 GALILEO 11 (268) 1 41175U 15079B 22144.61687462 .00000073 00000-0 00000-0 0 9993 2 41175 55.1464 142.0553 0004856 301.5715 58.3907 1.70474503 39881 NAVSTAR 76 (USA 266) 1 41328U 16007A 22146.09030762 .00000087 00000-0 00000-0 0 9999 2 41328 54.9057 148.3629 0061627 230.5011 128.9768 2.00571704 46093 GALILEO 14 (26B) 1 41549U 16030A 22145.90957009 -.00000054 00000-0 00000-0 0 9996 2 41549 55.7825 262.5125 0002843 330.7436 29.2226 1.70475460 37381 GALILEO 13 (26A) 1 41550U 16030B 22146.20220892 -.00000054 00000-0 00000-0 0 9995 2 41550 55.7825 262.5059 0002232 283.2402 76.7171 1.70475574 37388 GALILEO 15 (267) 1 41859U 16069A 22144.10374453 .00000072 00000-0 00000-0 0 9998 2 41859 54.8083 142.2581 0005812 292.1477 67.8001 1.70473139 34080 GALILEO 16 (26C) 1 41860U 16069B 22145.13031960 .00000072 00000-0 00000-0 0 9997 2 41860 54.8060 142.2271 0004321 308.2549 51.7162 1.70473162 34352 GALILEO 17 (26D) 1 41861U 16069C 22146.08234165 .00000069 00000-0 00000-0 0 9991 2 41861 54.8087 142.2060 0005555 275.5950 84.3500 1.70473276 34231 GALILEO 18 (26E) 1 41862U 16069D 22145.05624580 .00000072 00000-0 00000-0 0 9996 2 41862 54.8065 142.2290 0004644 278.6193 81.3381 1.70473197 34342